[[{"header":{"parameterUnit":"m.s-1","parameterCategory":1,"la1":30.2991,"la2":30.254,"lo1":-89.0895,"lo2":-89.0444,"dy":0.0017,"dx":0.0017,"nx":28,"ny":28,"refTime":"2024-07-21T09:00:00:Z","depth":0,"parameterNumber":2,"parameterNumberName":"U-component_of_WINDS"},"data":[0,0,0,0,0,0,0,0,0,0,0,0,0,0,0,0,0,0,0,0,0,0,0,0,0,0,0,0,0,0,0,0,0,0,0,0,0,0,0,0,0,0,0,0,0,0,0,0,0,0,0,0,0,0,0,0,0,0,4.5785,4.5785,0,4.5844,4.5845,4.5845,4.5826,4.5825,4.5823,4.5822,4.5881,4.5884,4.5886,0,0,0,0,0,0,0,0,0,0,0,0,0,4.5655,4.5657,4.5785,4.5785,4.5786,4.5844,4.5845,4.5845,4.5826,4.5825,4.5823,4.5822,4.588,4.5883,4.5887,0,0,0,0,0,0,0,0,0,0,0,0,0,4.5712,4.5658,4.5785,4.5784,4.5784,4.5844,4.5845,4.5846,4.5826,4.5825,4.5823,4.5821,4.5879,4.5883,4.5887,4.5951,0,0,4.59,4.5901,0,0,0,0,0,0,0,0,4.5709,4.5717,4.5783,4.5784,4.5784,4.5826,4.582,4.5881,4.5827,4.581,4.5822,4.582,4.5864,4.5869,4.5884,4.5953,4.5956,4.59,4.5902,4.5904,4.5905,0,0,0,0,0,0,0,4.5705,4.5714,4.5808,4.5784,4.5785,4.578,4.5786,4.5832,4.5847,4.5812,4.581,4.5818,4.5864,4.588,4.5886,4.5957,4.59,4.5904,4.5906,4.5908,4.6082,4.6084,0,0,0,0,0,0,4.5701,4.5711,4.5806,4.581,4.5741,4.5784,4.5791,4.5814,4.5846,4.585,4.5819,4.5817,4.5874,4.5881,4.5888,4.5965,4.5904,4.5908,4.591,4.608,4.6082,4.6085,0,0,0,0,0,0,4.5698,4.5709,4.5804,4.576,4.5772,4.5788,4.5815,4.5816,4.5833,4.5852,4.5855,4.5833,4.5873,4.5882,4.5935,4.5966,4.591,4.5914,4.6077,4.608,4.6083,4.6119,0,0,0,0,0,0,4.5694,4.5708,4.5733,4.5761,4.5774,4.5851,4.5817,4.5819,4.584,4.5837,4.5866,4.5869,4.5872,4.5929,4.594,4.5971,4.5917,4.6074,4.6079,4.6082,4.6115,4.6123,4.613,0,0,0,0,0,4.569,4.574,4.5734,4.5746,4.5805,4.5853,4.586,4.5863,4.5843,4.5867,4.588,4.5868,4.5962,4.5935,4.5946,4.5979,4.6072,4.6077,4.6082,4.6112,4.6121,4.6129,0,0,0,0,0,0,4.5714,4.5743,4.5737,4.5798,4.5823,4.5849,4.588,4.5873,4.5904,4.59,4.5902,4.5909,4.5964,4.5977,4.5947,4.6043,4.6014,4.6021,4.6032,4.6042,4.6049,4.6044,4.592,0,0,0,0,0,4.5726,4.5763,4.5787,4.5838,4.5851,4.5864,4.5884,4.5885,4.5911,4.5921,4.5937,4.5963,4.5998,4.602,4.6054,4.6117,4.6123,4.6146,4.6153,4.6159,4.6165,4.62,4.621,4.6101,4.61,4.61,0,0,4.5752,4.5773,4.5795,4.5843,4.5863,4.59,4.5872,4.5913,4.5941,4.5927,4.5979,4.5992,4.602,4.6079,4.6106,4.6092,4.6197,4.6165,4.617,4.6172,4.6206,4.6216,4.6226,4.6104,4.6103,4.6103,0,0,4.5818,4.5838,4.5883,4.5904,4.5934,4.5942,4.5953,4.5981,4.599,4.6042,4.6032,4.6066,4.6126,4.6147,4.6165,4.6242,4.6232,4.6252,4.629,4.6325,4.6333,4.6341,4.6368,4.6378,4.6259,4.6259,4.6259,0,4.5846,4.5903,4.5907,4.5949,4.5971,4.5961,4.6007,4.6026,4.6066,4.6081,4.6064,4.6141,4.6159,4.6223,4.6242,4.6257,4.627,4.6249,4.6332,4.634,4.6347,4.6373,4.6383,4.6261,4.6261,4.626,4.626,0,4.5936,4.5976,4.6009,4.6048,4.6074,4.6117,4.6128,4.6153,4.6152,4.6162,4.6216,4.6238,4.6276,4.6291,4.629,4.6356,4.6346,4.6331,4.6301,4.6359,4.6384,4.6394,4.6264,4.6263,4.6263,4.6262,0,0,4.6017,4.606,4.6072,4.609,4.6124,4.6155,4.6199,4.6237,4.6258,4.6286,4.6323,4.6375,4.6362,4.6383,4.6384,4.6414,4.6474,4.6396,4.6396,4.6409,4.6548,4.6558,4.657,4.6468,4.647,4.6472,4.6545,0,4.6087,4.6164,4.617,4.6239,4.6276,4.6269,4.6307,4.6332,4.6343,4.6376,4.6388,4.6425,4.6404,4.6417,4.6447,4.646,4.6502,4.6455,4.6502,4.6503,4.6494,4.6583,4.6594,4.6662,4.6555,4.6557,4.6558,0,4.6177,4.6209,4.6283,4.6313,4.6328,4.6363,4.6399,4.643,4.6459,4.6465,4.6489,4.6487,4.6532,4.6502,4.6564,4.6532,4.6552,4.6561,4.6564,4.6568,4.6533,4.6588,4.6684,4.6694,4.6573,4.6572,4.6571,0,4.6229,4.6291,4.6343,4.6359,4.6395,4.6419,4.6435,4.6462,4.6485,4.6516,4.6531,4.6567,4.6587,4.6615,4.6622,4.66,4.6684,4.6655,4.669,4.669,4.6707,4.6706,4.6807,4.6721,4.6721,4.6721,4.6721,0,4.6305,4.6351,4.6367,4.6399,4.645,4.6457,4.6507,4.6521,4.6545,4.658,4.6575,4.6608,4.6616,4.665,4.6656,4.6707,4.6716,4.6722,4.6723,4.6722,4.6721,4.6734,4.6729,4.6724,4.6723,4.6723,4.6722,0,4.6371,4.6384,4.6441,4.6471,4.648,4.6516,4.6541,4.6572,4.6584,4.6628,4.6638,4.6656,4.6696,4.6707,4.6754,4.6759,4.6818,4.6815,4.6809,4.6808,4.6843,4.684,4.6956,4.6971,4.6876,4.6877,4.6877,0,4.6419,4.6454,4.6488,4.6512,4.6529,4.6567,4.6591,4.6599,4.6623,4.6659,4.6686,4.6726,4.6758,4.6823,4.6839,4.6876,4.6873,4.6911,4.6879,4.6877,4.6873,4.6871,4.6874,4.6917,4.6918,4.6919,4.692,0,4.6501,4.6507,4.6541,4.6579,4.6608,4.6638,4.6667,4.6686,4.6698,4.6726,4.6768,4.6793,4.6843,4.6882,4.692,4.6936,4.693,4.693,4.694,4.6939,4.6934,4.6937,4.6825,4.6927,4.6926,4.6926,4.6925,4.6925,4.6559,4.6591,4.662,4.6659,4.6682,4.6709,4.674,4.6756,4.6791,4.6833,4.6835,4.688,4.6909,4.6959,4.6977,4.7012,4.7001,4.7015,4.7019,4.7022,4.7025,4.693,4.7019,4.7019,4.7019,4.7019,4.7019,0,4.6642,4.6661,4.6697,4.6738,4.6769,4.6762,4.6794,4.682,4.686,4.6888,4.692,4.6968,4.7007,4.7027,4.7066,4.709,4.7089,4.71,4.7098,4.7102,4.7033,4.7021,4.7101,4.7101,4.7101,4.7101,4.7101,4.7101,4.6688,4.6741,4.675,4.6813,4.6832,4.6877,4.6896,4.6921,4.6943,4.6997,4.703,4.7043,4.7068,4.7108,4.7144,4.7149,4.7163,4.7176,4.7179,4.7115,4.7106,4.7098,4.7086,4.7179,4.7179,4.7244,4.7245,4.7245]},{"header":{"parameterUnit":"m.s-1","parameterCategory":1,"la1":30.2991,"la2":30.254,"lo1":-89.0895,"lo2":-89.0444,"dy":0.0017,"dx":0.0017,"nx":28,"ny":28,"refTime":"2024-07-21T09:00:00:Z","depth":0,"parameterNumber":3,"parameterNumberName":"V-component_of_WINDS"},"data":[0,0,0,0,0,0,0,0,0,0,0,0,0,0,0,0,0,0,0,0,0,0,0,0,0,0,0,0,0,0,0,0,0,0,0,0,0,0,0,0,0,0,0,0,0,0,0,0,0,0,0,0,0,0,0,0,0,0,0.2738,0.2739,0,0.2919,0.2922,0.2924,0.2972,0.2971,0.297,0.2969,0.316,0.3165,0.3172,0,0,0,0,0,0,0,0,0,0,0,0,0,0.2435,0.244,0.2737,0.274,0.2742,0.2919,0.2922,0.2924,0.2972,0.2971,0.2969,0.2968,0.3158,0.3165,0.3172,0,0,0,0,0,0,0,0,0,0,0,0,0,0.2587,0.2442,0.2737,0.2787,0.2793,0.2919,0.2922,0.2925,0.2972,0.2971,0.2969,0.2968,0.3155,0.3164,0.3173,0.3263,0,0,0.3201,0.3205,0,0,0,0,0,0,0,0,0.2578,0.2598,0.2777,0.2784,0.2791,0.2921,0.2885,0.3038,0.2973,0.2905,0.2969,0.2967,0.3082,0.3097,0.3135,0.3272,0.328,0.3202,0.3207,0.3211,0.3214,0,0,0,0,0,0,0,0.2567,0.259,0.281,0.278,0.2788,0.2802,0.2821,0.2914,0.3,0.291,0.2914,0.2935,0.3085,0.3126,0.314,0.3283,0.3202,0.321,0.3215,0.3219,0.3502,0.3504,0,0,0,0,0,0,0.2548,0.2581,0.2804,0.2815,0.2678,0.2808,0.2831,0.2881,0.3,0.3016,0.2936,0.2937,0.3111,0.3129,0.3147,0.3259,0.3211,0.322,0.3225,0.35,0.3502,0.3505,0,0,0,0,0,0,0.2541,0.2567,0.2796,0.2699,0.2729,0.2815,0.2872,0.2886,0.2926,0.3019,0.3035,0.2962,0.311,0.3134,0.3233,0.3266,0.3224,0.3232,0.3498,0.3501,0.3503,0.3485,0,0,0,0,0,0,0.2532,0.2564,0.2599,0.27,0.2734,0.2879,0.2874,0.289,0.2941,0.2944,0.3047,0.3063,0.3111,0.3219,0.3242,0.3278,0.324,0.3495,0.3499,0.3502,0.3483,0.3487,0.349,0,0,0,0,0,0.2521,0.2587,0.26,0.2627,0.2779,0.2881,0.2901,0.2954,0.2944,0.2979,0.3039,0.3059,0.3259,0.3229,0.3255,0.3295,0.3493,0.3498,0.3502,0.3481,0.3486,0.349,0,0,0,0,0,0,0.249,0.2601,0.2617,0.2717,0.2789,0.2888,0.2935,0.2957,0.3034,0.3033,0.3097,0.312,0.3215,0.3265,0.323,0.3387,0.3376,0.3386,0.3351,0.3357,0.336,0.3346,0.3247,0,0,0,0,0,0.2494,0.2566,0.266,0.274,0.2775,0.2848,0.2895,0.2929,0.3007,0.3038,0.3104,0.318,0.326,0.3311,0.3389,0.349,0.3513,0.353,0.3533,0.3536,0.3544,0.3601,0.3609,0.3519,0.3519,0.3519,0,0,0.2505,0.2575,0.2617,0.2735,0.2795,0.2869,0.2874,0.2952,0.3008,0.305,0.3147,0.3199,0.3288,0.3387,0.3435,0.3432,0.3574,0.3542,0.3543,0.355,0.3606,0.3614,0.3622,0.3522,0.3522,0.3521,0,0,0.2562,0.2621,0.2694,0.2753,0.2842,0.2891,0.2908,0.3004,0.3039,0.3138,0.317,0.3239,0.3374,0.3436,0.3485,0.3564,0.3585,0.3588,0.3607,0.3661,0.3668,0.3675,0.3703,0.3712,0.3595,0.3595,0.3595,0,0.2564,0.2675,0.2729,0.2805,0.2857,0.2896,0.297,0.3026,0.3137,0.3172,0.3166,0.3337,0.3399,0.3514,0.3533,0.3571,0.3594,0.3576,0.3663,0.367,0.3677,0.3704,0.3714,0.3595,0.3595,0.3595,0.3595,0,0.2674,0.2751,0.2799,0.2903,0.296,0.3035,0.31,0.3152,0.3181,0.323,0.3329,0.3405,0.35,0.3529,0.356,0.3648,0.3644,0.365,0.364,0.3684,0.3711,0.3722,0.3594,0.3594,0.3595,0.3595,0,0,0.2716,0.2848,0.2865,0.2912,0.3013,0.3074,0.3151,0.3242,0.3284,0.336,0.3426,0.3539,0.3545,0.3601,0.3638,0.3686,0.3743,0.3686,0.3689,0.3694,0.3845,0.384,0.3851,0.3757,0.376,0.3761,0.3838,0,0.2786,0.2923,0.2973,0.3086,0.3158,0.3196,0.3263,0.3333,0.338,0.3449,0.3503,0.3582,0.3584,0.3617,0.3666,0.3725,0.3774,0.3721,0.3821,0.3824,0.3797,0.3865,0.386,0.3928,0.3848,0.385,0.3852,0,0.2885,0.2959,0.3079,0.317,0.3202,0.3261,0.3348,0.3413,0.3493,0.3525,0.3585,0.3619,0.3702,0.3687,0.3802,0.3764,0.3808,0.3844,0.3848,0.3859,0.384,0.3878,0.3951,0.3961,0.3869,0.3867,0.3866,0,0.2903,0.3034,0.3122,0.3161,0.327,0.3311,0.3358,0.3437,0.3487,0.3564,0.3597,0.3683,0.3729,0.3795,0.3851,0.3835,0.3961,0.3951,0.399,0.3989,0.4015,0.4013,0.4096,0.4044,0.4043,0.4043,0.4043,0,0.2975,0.3047,0.3131,0.3186,0.3268,0.3325,0.3404,0.3454,0.3523,0.3589,0.3628,0.3688,0.3759,0.3829,0.3874,0.3962,0.3983,0.4011,0.4022,0.4008,0.4004,0.4038,0.4035,0.4046,0.4045,0.4045,0.4044,0,0.301,0.3069,0.3168,0.3262,0.3288,0.3344,0.3425,0.348,0.3529,0.3611,0.3634,0.3711,0.3796,0.3858,0.3968,0.3998,0.4092,0.4104,0.4065,0.407,0.4106,0.4102,0.4214,0.4231,0.4167,0.4167,0.4168,0,0.3052,0.3108,0.3207,0.3253,0.33,0.3374,0.3425,0.3484,0.3536,0.3631,0.3674,0.3761,0.3833,0.3967,0.4034,0.4118,0.4131,0.4165,0.4144,0.4128,0.4132,0.4127,0.4133,0.4168,0.4168,0.4168,0.4169,0,0.312,0.3146,0.3218,0.3301,0.3361,0.3429,0.3498,0.3533,0.3604,0.3661,0.3747,0.3803,0.3914,0.4,0.4091,0.4141,0.4167,0.4174,0.4188,0.4174,0.4149,0.4162,0.4072,0.4172,0.4171,0.4171,0.4171,0.4171,0.316,0.3211,0.3288,0.3367,0.3425,0.3488,0.3544,0.3599,0.3671,0.3765,0.3796,0.3884,0.3963,0.4087,0.4138,0.4209,0.4209,0.4228,0.4233,0.4237,0.4236,0.4137,0.4226,0.4226,0.4226,0.4226,0.4226,0,0.3229,0.3281,0.3353,0.3447,0.3509,0.3526,0.3603,0.3655,0.3732,0.3802,0.3872,0.3971,0.4054,0.4127,0.4213,0.4256,0.427,0.4277,0.4274,0.4285,0.4232,0.4211,0.4264,0.4264,0.4264,0.4264,0.4264,0.4264,0.3272,0.336,0.3395,0.3511,0.3563,0.3649,0.3691,0.375,0.3806,0.3914,0.3983,0.4029,0.4101,0.4193,0.427,0.4289,0.432,0.4323,0.4345,0.4294,0.4289,0.4285,0.4266,0.4329,0.4329,0.4394,0.4394,0.4394]}]]